| time (UTC) | temp F | wind direction | speed MPH | gust MPH | rain 1hr in | rain 24hr in | rain mn in | humidity % | barometer mb |
| 20260504000048 | 63 | 0 | 0.0 | 0.0 | 0.00 | 0.00 | 0.00 | 53 | 1016.9 |
| 20260503234545 | 65 | 0 | 0.0 | 0.0 | 0.00 | 0.00 | 0.00 | 50 | 1017.0 |
| 20260503233044 | 66 | 0 | 0.0 | 3.0 | 0.00 | 0.00 | 0.00 | 47 | 1017.1 |
| 20260503231547 | 68 | 0 | 0.0 | 2.0 | 0.00 | 0.00 | 0.00 | 44 | 1017.0 |
| 20260503230048 | 68 | 59 | 0.0 | 5.0 | 0.00 | 0.00 | 0.00 | 40 | 1016.8 |
| 20260503224546 | 69 | 0 | 0.0 | 3.0 | 0.00 | 0.00 | 0.00 | 38 | 1016.9 |
| 20260503223046 | 69 | 139 | 0.0 | 8.0 | 0.00 | 0.00 | 0.00 | 40 | 1017.0 |
| 20260503221549 | 69 | 0 | 0.0 | 5.0 | 0.00 | 0.00 | 0.00 | 38 | 1017.0 |
| 20260503220104 | 70 | 0 | 3.0 | 11.0 | 0.00 | 0.00 | 0.00 | 38 | 1017.0 |
| 20260503214547 | 70 | 0 | 0.0 | 5.0 | 0.00 | 0.00 | 0.00 | 39 | 1017.1 |
| 20260503213049 | 70 | 0 | 1.0 | 9.0 | 0.00 | 0.00 | 0.00 | 38 | 1017.2 |
| 20260503211601 | 70 | 0 | 0.0 | 6.0 | 0.00 | 0.00 | 0.00 | 38 | 1017.3 |
| 20260503210055 | 70 | 42 | 1.0 | 9.0 | 0.00 | 0.00 | 0.00 | 37 | 1017.4 |
| 20260503204551 | 70 | 22 | 1.0 | 9.0 | 0.00 | 0.00 | 0.00 | 38 | 1017.5 |
| 20260503203050 | 70 | 226 | 2.0 | 8.0 | 0.00 | 0.00 | 0.00 | 37 | 1017.8 |
| 20260503201551 | 70 | 0 | 0.0 | 11.0 | 0.00 | 0.00 | 0.00 | 36 | 1018.2 |
| 20260503200046 | 70 | 237 | 2.0 | 11.0 | 0.00 | 0.00 | 0.00 | 36 | 1018.3 |
| 20260503194547 | 69 | 292 | 4.0 | 14.0 | 0.00 | 0.00 | 0.00 | 38 | 1018.6 |
| 20260503193049 | 69 | 225 | 2.0 | 13.0 | 0.00 | 0.00 | 0.00 | 36 | 1018.7 |
| 20260503191548 | 69 | 340 | 1.0 | 11.0 | 0.00 | 0.00 | 0.00 | 34 | 1018.8 |
| 20260503190052 | 68 | 0 | 3.0 | 9.0 | 0.00 | 0.00 | 0.00 | 35 | 1019.1 |
| 20260503184547 | 68 | 137 | 3.0 | 12.0 | 0.00 | 0.00 | 0.00 | 36 | 1019.3 |
| 20260503183046 | 68 | 205 | 3.0 | 10.0 | 0.00 | 0.00 | 0.00 | 38 | 1019.4 |
| 20260503181617 | 67 | 218 | 2.0 | 10.0 | 0.00 | 0.00 | 0.00 | 37 | 1019.4 |
| 20260503180045 | 67 | 0 | 2.0 | 15.0 | 0.00 | 0.00 | 0.00 | 38 | 1019.7 |
| 20260503174548 | 66 | 0 | 3.0 | 12.0 | 0.00 | 0.00 | 0.00 | 38 | 1019.6 |
| 20260503173054 | 65 | 271 | 3.0 | 10.0 | 0.00 | 0.00 | 0.00 | 40 | 1019.8 |
| 20260503171548 | 66 | 247 | 0.0 | 4.0 | 0.00 | 0.00 | 0.00 | 40 | 1020.2 |
| 20260503100104 | 36 | 0 | 0.0 | 1.0 | 0.00 | 0.00 | 0.00 | 88 | 1019.6 |
| 20260503081550 | 37 | 0 | 0.0 | 0.0 | 0.00 | 0.00 | 0.00 | 86 | 1018.8 |
| 20260503071554 | 38 | 0 | 0.0 | 0.0 | 0.00 | 0.00 | 0.00 | 85 | 1018.2 |
| 20260503060111 | 41 | 0 | 0.0 | 0.0 | 0.00 | 0.00 | 0.00 | 83 | 1017.9 |
| 20260503054556 | 41 | 0 | 0.0 | 1.0 | 0.00 | 0.00 | 0.00 | 82 | 1018.1 |
| 20260503053050 | 41 | 0 | 0.0 | 0.0 | 0.00 | 0.00 | 0.00 | 81 | 1018.0 |
| 20260503051551 | 42 | 0 | 0.0 | 0.0 | 0.00 | 0.00 | 0.00 | 81 | 1018.1 |
| 20260503050049 | 42 | 0 | 0.0 | 0.0 | 0.00 | 0.00 | 0.00 | 78 | 1018.0 |
| 20260503044618 | 43 | 0 | 0.0 | 0.0 | 0.00 | 0.00 | 0.00 | 78 | 1018.0 |
| 20260503043050 | 44 | 0 | 0.0 | 0.0 | 0.00 | 0.00 | 0.00 | 76 | 1017.9 |
| 20260503041555 | 44 | 0 | 0.0 | 0.0 | 0.00 | 0.00 | 0.00 | 75 | 1017.9 |
| 20260503040105 | 45 | 0 | 0.0 | 0.0 | 0.00 | 0.00 | 0.00 | 74 | 1017.8 |
| 20260503034556 | 46 | 0 | 0.0 | 0.0 | 0.00 | 0.00 | 0.00 | 74 | 1017.6 |
| 20260503033049 | 47 | 0 | 0.0 | 0.0 | 0.00 | 0.00 | 0.00 | 71 | 1017.6 |
| 20260503031549 | 47 | 0 | 0.0 | 0.0 | 0.00 | 0.00 | 0.00 | 69 | 1017.4 |
| 20260503030045 | 48 | 0 | 0.0 | 0.0 | 0.00 | 0.00 | 0.00 | 68 | 1017.2 |
| 20260503024555 | 48 | 0 | 0.0 | 5.0 | 0.00 | 0.00 | 0.00 | 66 | 1017.0 |
| 20260503023047 | 49 | 0 | 0.0 | 4.0 | 0.00 | 0.00 | 0.00 | 66 | 1016.6 |
| 20260503021550 | 50 | 0 | 1.0 | 6.0 | 0.00 | 0.00 | 0.00 | 64 | 1016.5 |
| 20260503020049 | 52 | 0 | 0.0 | 0.0 | 0.00 | 0.00 | 0.00 | 60 | 1016.4 |
| 20260503014554 | 53 | 0 | 0.0 | 0.0 | 0.00 | 0.00 | 0.00 | 58 | 1016.0 |
| 20260503013045 | 54 | 0 | 0.0 | 2.0 | 0.00 | 0.00 | 0.00 | 58 | 1015.7 |
| 20260503011548 | 55 | 50 | 0.0 | 3.0 | 0.00 | 0.00 | 0.00 | 48 | 1015.4 |
| 20260503010048 | 55 | 0 | 0.0 | 7.0 | 0.00 | 0.00 | 0.00 | 50 | 1015.1 |
| 20260503004553 | 56 | 0 | 0.0 | 4.0 | 0.00 | 0.00 | 0.00 | 52 | 1014.8 |
| 20260503003049 | 58 | 0 | 0.0 | 1.0 | 0.00 | 0.00 | 0.00 | 47 | 1014.7 |
| 20260503001551 | 59 | 0 | 0.0 | 1.0 | 0.00 | 0.00 | 0.00 | 45 | 1014.3 |